owner,sensor,date,latitude,longitude,vertical_datum,sea_water_temperature,qcFlag
Shell,ioos:station:wmo:42864:2,2020-06-01T00:03:00Z,21.2465,-93.4117,11.0,28.6,11111222
Shell,ioos:station:wmo:42864:2,2020-06-01T00:13:00Z,21.2465,-93.4117,11.0,28.6,11111222
Shell,ioos:station:wmo:42864:2,2020-06-01T00:23:00Z,21.2465,-93.4117,11.0,28.6,11111222
Shell,ioos:station:wmo:42864:2,2020-06-01T00:33:00Z,21.2465,-93.4117,11.0,28.6,11111222
Shell,ioos:station:wmo:42864:2,2020-06-01T00:43:00Z,21.2465,-93.4117,11.0,28.6,11111222
Shell,ioos:station:wmo:42864:2,2020-06-01T00:53:00Z,21.2465,-93.4117,11.0,28.6,11111222
Shell,ioos:station:wmo:42864:2,2020-06-01T01:03:00Z,21.2465,-93.4117,11.0,28.6,11111222
Shell,ioos:station:wmo:42864:2,2020-06-01T01:13:00Z,21.2465,-93.4117,11.0,28.6,11111222
Shell,ioos:station:wmo:42864:2,2020-06-01T01:23:00Z,21.2465,-93.4117,11.0,28.6,11111222
Shell,ioos:station:wmo:42864:2,2020-06-01T01:33:00Z,21.2465,-93.4117,11.0,28.6,11111222
Shell,ioos:station:wmo:42864:2,2020-06-01T01:43:00Z,21.2465,-93.4117,11.0,28.6,11111222
Shell,ioos:station:wmo:42864:2,2020-06-01T01:53:00Z,21.2465,-93.4117,11.0,28.6,11111222
Shell,ioos:station:wmo:42864:2,2020-06-01T02:03:00Z,21.2465,-93.4117,11.0,28.6,11111222
Shell,ioos:station:wmo:42864:2,2020-06-01T02:13:00Z,21.2465,-93.4117,11.0,28.6,11111222
Shell,ioos:station:wmo:42864:2,2020-06-01T02:23:00Z,21.2465,-93.4117,11.0,28.6,11111222
Shell,ioos:station:wmo:42864:2,2020-06-01T02:33:00Z,21.2465,-93.4117,11.0,28.6,11111222
Shell,ioos:station:wmo:42864:2,2020-06-01T02:43:00Z,21.2465,-93.4117,11.0,28.6,11111222
Shell,ioos:station:wmo:42864:2,2020-06-01T02:53:00Z,21.2465,-93.4117,11.0,28.6,11111222
Shell,ioos:station:wmo:42864:2,2020-06-01T03:03:00Z,21.2465,-93.4117,11.0,28.6,11111222
Shell,ioos:station:wmo:42864:2,2020-06-01T03:13:00Z,21.2465,-93.4117,11.0,28.6,11111222
Shell,ioos:station:wmo:42864:2,2020-06-01T03:23:00Z,21.2465,-93.4117,11.0,28.6,11111222
Shell,ioos:station:wmo:42864:2,2020-06-01T03:33:00Z,21.2465,-93.4117,11.0,28.6,11111222
Shell,ioos:station:wmo:42864:2,2020-06-01T03:43:00Z,21.2465,-93.4117,11.0,28.6,11111222
Shell,ioos:station:wmo:42864:2,2020-06-01T03:53:00Z,21.2465,-93.4117,11.0,28.6,11111222
Shell,ioos:station:wmo:42864:2,2020-06-01T04:03:00Z,21.2465,-93.4117,11.0,28.6,11111222
Shell,ioos:station:wmo:42864:2,2020-06-01T04:13:00Z,21.2465,-93.4117,11.0,28.6,11111222
Shell,ioos:station:wmo:42864:2,2020-06-01T04:23:00Z,21.2465,-93.4117,11.0,28.5,11111222
Shell,ioos:station:wmo:42864:2,2020-06-01T04:33:00Z,21.2465,-93.4117,11.0,28.5,11111222
Shell,ioos:station:wmo:42864:2,2020-06-01T04:43:00Z,21.2465,-93.4117,11.0,28.5,11111222
Shell,ioos:station:wmo:42864:2,2020-06-01T04:53:00Z,21.2465,-93.4117,11.0,28.5,11111222
Shell,ioos:station:wmo:42864:2,2020-06-01T05:03:00Z,21.2465,-93.4117,11.0,28.5,11111222
Shell,ioos:station:wmo:42864:2,2020-06-01T05:13:00Z,21.2465,-93.4117,11.0,28.5,11111222
Shell,ioos:station:wmo:42864:2,2020-06-01T05:23:00Z,21.2465,-93.4117,11.0,28.5,11111222
Shell,ioos:station:wmo:42864:2,2020-06-01T05:34:00Z,21.2465,-93.4117,11.0,28.5,11111222
Shell,ioos:station:wmo:42864:2,2020-06-01T05:44:00Z,21.2465,-93.4117,11.0,28.4,11111222
Shell,ioos:station:wmo:42864:2,2020-06-01T05:54:00Z,21.2465,-93.4117,11.0,28.4,11111222
Shell,ioos:station:wmo:42864:2,2020-06-01T06:04:00Z,21.2465,-93.4117,11.0,28.4,11111222
Shell,ioos:station:wmo:42864:2,2020-06-01T06:13:00Z,21.2465,-93.4117,11.0,28.4,11111222
Shell,ioos:station:wmo:42864:2,2020-06-01T06:23:00Z,21.2465,-93.4117,11.0,28.4,11111222
Shell,ioos:station:wmo:42864:2,2020-06-01T06:34:00Z,21.2465,-93.4117,11.0,28.4,11111222
Shell,ioos:station:wmo:42864:2,2020-06-01T06:43:00Z,21.2465,-93.4117,11.0,28.4,11111222
Shell,ioos:station:wmo:42864:2,2020-06-01T06:54:00Z,21.2465,-93.4117,11.0,28.4,11111222
Shell,ioos:station:wmo:42864:2,2020-06-01T07:03:00Z,21.2465,-93.4117,11.0,28.4,11111222
Shell,ioos:station:wmo:42864:2,2020-06-01T07:13:00Z,21.2465,-93.4117,11.0,28.4,11111222
Shell,ioos:station:wmo:42864:2,2020-06-01T07:23:00Z,21.2465,-93.4117,11.0,28.4,11111222
Shell,ioos:station:wmo:42864:2,2020-06-01T07:33:00Z,21.2465,-93.4117,11.0,28.4,11111222
Shell,ioos:station:wmo:42864:2,2020-06-01T07:43:00Z,21.2465,-93.4117,11.0,28.4,11111222
Shell,ioos:station:wmo:42864:2,2020-06-01T07:53:00Z,21.2465,-93.4117,11.0,28.4,11111222
Shell,ioos:station:wmo:42864:2,2020-06-01T08:03:00Z,21.2465,-93.4117,11.0,28.4,11111222
Shell,ioos:station:wmo:42864:2,2020-06-01T08:13:00Z,21.2465,-93.4117,11.0,28.4,11111222
Shell,ioos:station:wmo:42864:2,2020-06-01T08:23:00Z,21.2465,-93.4117,11.0,28.4,11111222
Shell,ioos:station:wmo:42864:2,2020-06-01T08:33:00Z,21.2465,-93.4117,11.0,28.4,11111222
Shell,ioos:station:wmo:42864:2,2020-06-01T08:44:00Z,21.2465,-93.4117,11.0,28.4,11111222
Shell,ioos:station:wmo:42864:2,2020-06-01T08:53:00Z,21.2465,-93.4117,11.0,28.4,11111222
Shell,ioos:station:wmo:42864:2,2020-06-01T09:03:00Z,21.2465,-93.4117,11.0,28.4,11111222
Shell,ioos:station:wmo:42864:2,2020-06-01T09:13:00Z,21.2465,-93.4117,11.0,28.4,11111222
Shell,ioos:station:wmo:42864:2,2020-06-01T09:23:00Z,21.2465,-93.4117,11.0,28.4,11111222
Shell,ioos:station:wmo:42864:2,2020-06-01T09:34:00Z,21.2465,-93.4117,11.0,28.4,11111222
Shell,ioos:station:wmo:42864:2,2020-06-01T09:44:00Z,21.2465,-93.4117,11.0,28.4,11111222
Shell,ioos:station:wmo:42864:2,2020-06-01T09:53:00Z,21.2465,-93.4117,11.0,28.4,11111222
Shell,ioos:station:wmo:42864:2,2020-06-01T10:04:00Z,21.2465,-93.4117,11.0,28.4,11111222
Shell,ioos:station:wmo:42864:2,2020-06-01T10:13:00Z,21.2465,-93.4117,11.0,28.4,11111222
Shell,ioos:station:wmo:42864:2,2020-06-01T10:23:00Z,21.2465,-93.4117,11.0,28.4,11111222
Shell,ioos:station:wmo:42864:2,2020-06-01T10:33:00Z,21.2465,-93.4117,11.0,28.4,11111222
Shell,ioos:station:wmo:42864:2,2020-06-01T10:43:00Z,21.2465,-93.4117,11.0,28.4,11111222
Shell,ioos:station:wmo:42864:2,2020-06-01T10:53:00Z,21.2465,-93.4117,11.0,28.4,11111222
Shell,ioos:station:wmo:42864:2,2020-06-01T11:04:00Z,21.2465,-93.4117,11.0,28.4,11111222
Shell,ioos:station:wmo:42864:2,2020-06-01T11:13:00Z,21.2465,-93.4117,11.0,28.4,11111222
Shell,ioos:station:wmo:42864:2,2020-06-01T11:23:00Z,21.2465,-93.4117,11.0,28.4,11111222
Shell,ioos:station:wmo:42864:2,2020-06-01T11:33:00Z,21.2465,-93.4117,11.0,28.4,11111222
Shell,ioos:station:wmo:42864:2,2020-06-01T11:43:00Z,21.2465,-93.4117,11.0,28.4,11111222
Shell,ioos:station:wmo:42864:2,2020-06-01T11:53:00Z,21.2465,-93.4117,11.0,28.4,11111222
Shell,ioos:station:wmo:42864:2,2020-06-01T12:03:00Z,21.2465,-93.4117,11.0,28.4,11111222
Shell,ioos:station:wmo:42864:2,2020-06-01T12:13:00Z,21.2465,-93.4117,11.0,28.4,11111222
Shell,ioos:station:wmo:42864:2,2020-06-01T12:23:00Z,21.2465,-93.4117,11.0,28.4,11111222
Shell,ioos:station:wmo:42864:2,2020-06-01T12:33:00Z,21.2465,-93.4117,11.0,28.4,11111222
Shell,ioos:station:wmo:42864:2,2020-06-01T12:43:00Z,21.2465,-93.4117,11.0,28.4,11111222
Shell,ioos:station:wmo:42864:2,2020-06-01T12:53:00Z,21.2465,-93.4117,11.0,28.4,11111222
Shell,ioos:station:wmo:42864:2,2020-06-01T13:03:00Z,21.2465,-93.4117,11.0,28.4,11111222
Shell,ioos:station:wmo:42864:2,2020-06-01T13:13:00Z,21.2465,-93.4117,11.0,28.4,11111222
Shell,ioos:station:wmo:42864:2,2020-06-01T13:23:00Z,21.2465,-93.4117,11.0,28.4,11111222
Shell,ioos:station:wmo:42864:2,2020-06-01T13:33:00Z,21.2465,-93.4117,11.0,28.4,11111222
Shell,ioos:station:wmo:42864:2,2020-06-01T13:44:00Z,21.2465,-93.4117,11.0,28.4,11111222
Shell,ioos:station:wmo:42864:2,2020-06-01T13:53:00Z,21.2465,-93.4117,11.0,28.4,11111222
Shell,ioos:station:wmo:42864:2,2020-06-01T14:03:00Z,21.2465,-93.4117,11.0,28.4,11111222
Shell,ioos:station:wmo:42864:2,2020-06-01T14:13:00Z,21.2465,-93.4117,11.0,28.4,11111222
Shell,ioos:station:wmo:42864:2,2020-06-01T14:23:00Z,21.2465,-93.4117,11.0,28.4,11111222
Shell,ioos:station:wmo:42864:2,2020-06-01T14:33:00Z,21.2465,-93.4117,11.0,28.4,11111222
Shell,ioos:station:wmo:42864:2,2020-06-01T14:43:00Z,21.2465,-93.4117,11.0,28.4,11111222
Shell,ioos:station:wmo:42864:2,2020-06-01T14:53:00Z,21.2465,-93.4117,11.0,28.4,11111222
Shell,ioos:station:wmo:42864:2,2020-06-01T15:03:00Z,21.2465,-93.4117,11.0,28.4,11111222
Shell,ioos:station:wmo:42864:2,2020-06-01T15:13:00Z,21.2465,-93.4117,11.0,28.4,11111222
Shell,ioos:station:wmo:42864:2,2020-06-01T15:23:00Z,21.2465,-93.4117,11.0,28.4,11111222
Shell,ioos:station:wmo:42864:2,2020-06-01T15:33:00Z,21.2465,-93.4117,11.0,28.4,11111222
Shell,ioos:station:wmo:42864:2,2020-06-01T15:43:00Z,21.2465,-93.4117,11.0,28.4,11111222
Shell,ioos:station:wmo:42864:2,2020-06-01T15:53:00Z,21.2465,-93.4117,11.0,28.4,11111222
Shell,ioos:station:wmo:42864:2,2020-06-01T16:03:00Z,21.2465,-93.4117,11.0,28.4,11111222
Shell,ioos:station:wmo:42864:2,2020-06-01T16:13:00Z,21.2465,-93.4117,11.0,28.4,11111222
Shell,ioos:station:wmo:42864:2,2020-06-01T16:23:00Z,21.2465,-93.4117,11.0,28.3,11111222
Shell,ioos:station:wmo:42864:2,2020-06-01T16:33:00Z,21.2465,-93.4117,11.0,28.2,11111222
Shell,ioos:station:wmo:42864:2,2020-06-01T16:43:00Z,21.2465,-93.4117,11.0,28.3,11111222
Shell,ioos:station:wmo:42864:2,2020-06-01T16:53:00Z,21.2465,-93.4117,11.0,28.3,11111222
Shell,ioos:station:wmo:42864:2,2020-06-01T17:03:00Z,21.2465,-93.4117,11.0,28.2,11111222
Shell,ioos:station:wmo:42864:2,2020-06-01T17:13:00Z,21.2465,-93.4117,11.0,28.2,11111222
Shell,ioos:station:wmo:42864:2,2020-06-01T17:23:00Z,21.2465,-93.4117,11.0,28.3,11111222
Shell,ioos:station:wmo:42864:2,2020-06-01T17:34:00Z,21.2465,-93.4117,11.0,28.2,11111222
Shell,ioos:station:wmo:42864:2,2020-06-01T17:43:00Z,21.2465,-93.4117,11.0,28.1,11111222
Shell,ioos:station:wmo:42864:2,2020-06-01T17:53:00Z,21.2465,-93.4117,11.0,28.1,11111222
Shell,ioos:station:wmo:42864:2,2020-06-01T18:03:00Z,21.2465,-93.4117,11.0,28.0,11111222
Shell,ioos:station:wmo:42864:2,2020-06-01T18:13:00Z,21.2465,-93.4117,11.0,28.1,11111222
Shell,ioos:station:wmo:42864:2,2020-06-01T18:23:00Z,21.2465,-93.4117,11.0,27.9,11111222
Shell,ioos:station:wmo:42864:2,2020-06-01T18:33:00Z,21.2465,-93.4117,11.0,27.9,11111222
Shell,ioos:station:wmo:42864:2,2020-06-01T18:43:00Z,21.2465,-93.4117,11.0,28.2,11111222
Shell,ioos:station:wmo:42864:2,2020-06-01T18:53:00Z,21.2465,-93.4117,11.0,28.2,11111222
Shell,ioos:station:wmo:42864:2,2020-06-01T19:03:00Z,21.2465,-93.4117,11.0,28.2,11111222
Shell,ioos:station:wmo:42864:2,2020-06-01T19:13:00Z,21.2465,-93.4117,11.0,28.1,11111222
Shell,ioos:station:wmo:42864:2,2020-06-01T19:23:00Z,21.2465,-93.4117,11.0,28.3,11111222
Shell,ioos:station:wmo:42864:2,2020-06-01T19:33:00Z,21.2465,-93.4117,11.0,28.4,11111222
Shell,ioos:station:wmo:42864:2,2020-06-01T19:43:00Z,21.2465,-93.4117,11.0,28.4,11111222
Shell,ioos:station:wmo:42864:2,2020-06-01T19:53:00Z,21.2465,-93.4117,11.0,28.4,11111222
Shell,ioos:station:wmo:42864:2,2020-06-01T20:03:00Z,21.2465,-93.4117,11.0,28.4,11111222
Shell,ioos:station:wmo:42864:2,2020-06-01T20:13:00Z,21.2465,-93.4117,11.0,28.5,11111222
Shell,ioos:station:wmo:42864:2,2020-06-01T20:23:00Z,21.2465,-93.4117,11.0,28.5,11111222
Shell,ioos:station:wmo:42864:2,2020-06-01T20:33:00Z,21.2465,-93.4117,11.0,28.5,11111222
Shell,ioos:station:wmo:42864:2,2020-06-01T20:43:00Z,21.2465,-93.4117,11.0,28.5,11111222
Shell,ioos:station:wmo:42864:2,2020-06-01T20:53:00Z,21.2465,-93.4117,11.0,28.5,11111222
Shell,ioos:station:wmo:42864:2,2020-06-01T21:03:00Z,21.2465,-93.4117,11.0,28.5,11111222
Shell,ioos:station:wmo:42864:2,2020-06-01T21:14:00Z,21.2465,-93.4117,11.0,28.5,11111222
Shell,ioos:station:wmo:42864:2,2020-06-01T21:23:00Z,21.2465,-93.4117,11.0,28.5,11111222
Shell,ioos:station:wmo:42864:2,2020-06-01T21:34:00Z,21.2465,-93.4117,11.0,28.5,11111222
Shell,ioos:station:wmo:42864:2,2020-06-01T21:44:00Z,21.2465,-93.4117,11.0,28.5,11111222
Shell,ioos:station:wmo:42864:2,2020-06-01T21:53:00Z,21.2465,-93.4117,11.0,28.5,11111222
Shell,ioos:station:wmo:42864:2,2020-06-01T22:03:00Z,21.2465,-93.4117,11.0,28.4,11111222
Shell,ioos:station:wmo:42864:2,2020-06-01T22:13:00Z,21.2465,-93.4117,11.0,28.4,11111222
Shell,ioos:station:wmo:42864:2,2020-06-01T22:23:00Z,21.2465,-93.4117,11.0,28.3,11111222
Shell,ioos:station:wmo:42864:2,2020-06-01T22:33:00Z,21.2465,-93.4117,11.0,28.4,11111222
Shell,ioos:station:wmo:42864:2,2020-06-01T22:43:00Z,21.2465,-93.4117,11.0,28.5,11111222
Shell,ioos:station:wmo:42864:2,2020-06-01T22:53:00Z,21.2465,-93.4117,11.0,28.5,11111222
Shell,ioos:station:wmo:42864:2,2020-06-01T23:03:00Z,21.2465,-93.4117,11.0,28.5,11111222
Shell,ioos:station:wmo:42864:2,2020-06-01T23:13:00Z,21.2465,-93.4117,11.0,28.5,11111222
Shell,ioos:station:wmo:42864:2,2020-06-01T23:23:00Z,21.2465,-93.4117,11.0,28.5,11111222
Shell,ioos:station:wmo:42864:2,2020-06-01T23:33:00Z,21.2465,-93.4117,11.0,28.4,11111222
Shell,ioos:station:wmo:42864:2,2020-06-01T23:44:00Z,21.2465,-93.4117,11.0,28.4,11111222
Shell,ioos:station:wmo:42864:2,2020-06-01T23:53:00Z,21.2465,-93.4117,11.0,28.4,11111222
Shell,ioos:station:wmo:42864:2,2020-06-02T00:03:00Z,21.2465,-93.4117,11.0,28.4,11111222
Shell,ioos:station:wmo:42864:2,2020-06-02T00:13:00Z,21.2465,-93.4117,11.0,28.5,11111222
Shell,ioos:station:wmo:42864:2,2020-06-02T00:23:00Z,21.2465,-93.4117,11.0,28.5,11111222
Shell,ioos:station:wmo:42864:2,2020-06-02T00:33:00Z,21.2465,-93.4117,11.0,28.5,11111222
Shell,ioos:station:wmo:42864:2,2020-06-02T00:43:00Z,21.2465,-93.4117,11.0,28.5,11111222
Shell,ioos:station:wmo:42864:2,2020-06-02T00:53:00Z,21.2465,-93.4117,11.0,28.5,11111222
Shell,ioos:station:wmo:42864:2,2020-06-02T01:04:00Z,21.2465,-93.4117,11.0,28.4,11111222
Shell,ioos:station:wmo:42864:2,2020-06-02T01:13:00Z,21.2465,-93.4117,11.0,28.4,11111222
Shell,ioos:station:wmo:42864:2,2020-06-02T01:23:00Z,21.2465,-93.4117,11.0,28.4,11111222
Shell,ioos:station:wmo:42864:2,2020-06-02T01:33:00Z,21.2465,-93.4117,11.0,28.4,11111222
Shell,ioos:station:wmo:42864:2,2020-06-02T01:43:00Z,21.2465,-93.4117,11.0,28.4,11111222
Shell,ioos:station:wmo:42864:2,2020-06-02T01:53:00Z,21.2465,-93.4117,11.0,28.3,11111222
Shell,ioos:station:wmo:42864:2,2020-06-02T02:03:00Z,21.2465,-93.4117,11.0,28.4,11111222
Shell,ioos:station:wmo:42864:2,2020-06-02T02:13:00Z,21.2465,-93.4117,11.0,28.4,11111222
Shell,ioos:station:wmo:42864:2,2020-06-02T02:23:00Z,21.2465,-93.4117,11.0,28.4,11111222
Shell,ioos:station:wmo:42864:2,2020-06-02T02:33:00Z,21.2465,-93.4117,11.0,28.4,11111222
Shell,ioos:station:wmo:42864:2,2020-06-02T02:43:00Z,21.2465,-93.4117,11.0,28.4,11111222
Shell,ioos:station:wmo:42864:2,2020-06-02T02:54:00Z,21.2465,-93.4117,11.0,28.4,11111222
Shell,ioos:station:wmo:42864:2,2020-06-02T03:04:00Z,21.2465,-93.4117,11.0,28.4,11111222
Shell,ioos:station:wmo:42864:2,2020-06-02T03:13:00Z,21.2465,-93.4117,11.0,28.4,11111222
Shell,ioos:station:wmo:42864:2,2020-06-02T03:24:00Z,21.2465,-93.4117,11.0,28.4,11111222
Shell,ioos:station:wmo:42864:2,2020-06-02T03:33:00Z,21.2465,-93.4117,11.0,28.4,11111222
Shell,ioos:station:wmo:42864:2,2020-06-02T03:43:00Z,21.2465,-93.4117,11.0,28.4,11111222
Shell,ioos:station:wmo:42864:2,2020-06-02T03:53:00Z,21.2465,-93.4117,11.0,28.4,11111222
Shell,ioos:station:wmo:42864:2,2020-06-02T04:04:00Z,21.2465,-93.4117,11.0,28.4,11111222
Shell,ioos:station:wmo:42864:2,2020-06-02T04:13:00Z,21.2465,-93.4117,11.0,28.4,11111222
Shell,ioos:station:wmo:42864:2,2020-06-02T04:23:00Z,21.2465,-93.4117,11.0,28.4,11111222
Shell,ioos:station:wmo:42864:2,2020-06-02T04:33:00Z,21.2465,-93.4117,11.0,28.4,11111222
Shell,ioos:station:wmo:42864:2,2020-06-02T04:43:00Z,21.2465,-93.4117,11.0,28.4,11111222
Shell,ioos:station:wmo:42864:2,2020-06-02T04:53:00Z,21.2465,-93.4117,11.0,28.4,11111222
Shell,ioos:station:wmo:42864:2,2020-06-02T05:03:00Z,21.2465,-93.4117,11.0,28.4,11111222
Shell,ioos:station:wmo:42864:2,2020-06-02T05:13:00Z,21.2465,-93.4117,11.0,28.4,11111222
Shell,ioos:station:wmo:42864:2,2020-06-02T05:23:00Z,21.2465,-93.4117,11.0,28.4,11111222
Shell,ioos:station:wmo:42864:2,2020-06-02T05:33:00Z,21.2465,-93.4117,11.0,28.4,11111222
Shell,ioos:station:wmo:42864:2,2020-06-02T05:43:00Z,21.2465,-93.4117,11.0,28.4,11111222
Shell,ioos:station:wmo:42864:2,2020-06-02T05:54:00Z,21.2465,-93.4117,11.0,28.4,11111222
Shell,ioos:station:wmo:42864:2,2020-06-02T06:04:00Z,21.2465,-93.4117,11.0,28.4,11111222
Shell,ioos:station:wmo:42864:2,2020-06-02T06:14:00Z,21.2465,-93.4117,11.0,28.4,11111222
Shell,ioos:station:wmo:42864:2,2020-06-02T06:23:00Z,21.2465,-93.4117,11.0,28.4,11111222
Shell,ioos:station:wmo:42864:2,2020-06-02T06:34:00Z,21.2465,-93.4117,11.0,28.3,11111222
Shell,ioos:station:wmo:42864:2,2020-06-02T06:44:00Z,21.2465,-93.4117,11.0,28.3,11111222
Shell,ioos:station:wmo:42864:2,2020-06-02T06:54:00Z,21.2465,-93.4117,11.0,28.3,11111222
Shell,ioos:station:wmo:42864:2,2020-06-02T07:04:00Z,21.2465,-93.4117,11.0,28.3,11111222
Shell,ioos:station:wmo:42864:2,2020-06-02T07:14:00Z,21.2465,-93.4117,11.0,28.3,11111222
Shell,ioos:station:wmo:42864:2,2020-06-02T07:23:00Z,21.2465,-93.4117,11.0,28.3,11111222
Shell,ioos:station:wmo:42864:2,2020-06-02T07:33:00Z,21.2465,-93.4117,11.0,28.3,11111222
Shell,ioos:station:wmo:42864:2,2020-06-02T07:43:00Z,21.2465,-93.4117,11.0,28.3,11111222
Shell,ioos:station:wmo:42864:2,2020-06-02T07:53:00Z,21.2465,-93.4117,11.0,28.3,11111222
Shell,ioos:station:wmo:42864:2,2020-06-02T08:03:00Z,21.2465,-93.4117,11.0,28.3,11111222
Shell,ioos:station:wmo:42864:2,2020-06-02T08:13:00Z,21.2465,-93.4117,11.0,28.3,11111222
Shell,ioos:station:wmo:42864:2,2020-06-02T08:23:00Z,21.2465,-93.4117,11.0,28.3,11111222
Shell,ioos:station:wmo:42864:2,2020-06-02T08:33:00Z,21.2465,-93.4117,11.0,28.3,11111222
Shell,ioos:station:wmo:42864:2,2020-06-02T08:43:00Z,21.2465,-93.4117,11.0,28.3,11111222
Shell,ioos:station:wmo:42864:2,2020-06-02T08:53:00Z,21.2465,-93.4117,11.0,28.3,11111222
Shell,ioos:station:wmo:42864:2,2020-06-02T09:03:00Z,21.2465,-93.4117,11.0,28.3,11111222
Shell,ioos:station:wmo:42864:2,2020-06-02T09:13:00Z,21.2465,-93.4117,11.0,28.3,11111222
Shell,ioos:station:wmo:42864:2,2020-06-02T09:23:00Z,21.2465,-93.4117,11.0,28.3,11111222
Shell,ioos:station:wmo:42864:2,2020-06-02T09:33:00Z,21.2465,-93.4117,11.0,28.3,11111222
Shell,ioos:station:wmo:42864:2,2020-06-02T09:43:00Z,21.2465,-93.4117,11.0,28.3,11111222
Shell,ioos:station:wmo:42864:2,2020-06-02T09:53:00Z,21.2465,-93.4117,11.0,28.3,11111222
Shell,ioos:station:wmo:42864:2,2020-06-02T10:03:00Z,21.2465,-93.4117,11.0,28.3,11111222
Shell,ioos:station:wmo:42864:2,2020-06-02T10:13:00Z,21.2465,-93.4117,11.0,28.3,11111222
Shell,ioos:station:wmo:42864:2,2020-06-02T10:23:00Z,21.2465,-93.4117,11.0,28.3,11111222
Shell,ioos:station:wmo:42864:2,2020-06-02T10:33:00Z,21.2465,-93.4117,11.0,28.3,11111222
Shell,ioos:station:wmo:42864:2,2020-06-02T10:43:00Z,21.2465,-93.4117,11.0,28.3,11111222
Shell,ioos:station:wmo:42864:2,2020-06-02T10:53:00Z,21.2465,-93.4117,11.0,28.3,11111222
Shell,ioos:station:wmo:42864:2,2020-06-02T11:03:00Z,21.2465,-93.4117,11.0,28.3,11111222
Shell,ioos:station:wmo:42864:2,2020-06-02T11:13:00Z,21.2465,-93.4117,11.0,28.3,11111222
Shell,ioos:station:wmo:42864:2,2020-06-02T11:23:00Z,21.2465,-93.4117,11.0,28.3,11111222
Shell,ioos:station:wmo:42864:2,2020-06-02T11:33:00Z,21.2465,-93.4117,11.0,28.3,11111222
Shell,ioos:station:wmo:42864:2,2020-06-02T11:43:00Z,21.2465,-93.4117,11.0,28.3,11111222
Shell,ioos:station:wmo:42864:2,2020-06-02T11:53:00Z,21.2465,-93.4117,11.0,28.2,11111222
Shell,ioos:station:wmo:42864:2,2020-06-02T12:03:00Z,21.2465,-93.4117,11.0,28.2,11111222
Shell,ioos:station:wmo:42864:2,2020-06-02T12:13:00Z,21.2465,-93.4117,11.0,28.2,11111222
Shell,ioos:station:wmo:42864:2,2020-06-02T12:23:00Z,21.2465,-93.4117,11.0,28.2,11111222
Shell,ioos:station:wmo:42864:2,2020-06-02T12:33:00Z,21.2465,-93.4117,11.0,28.2,11111222
Shell,ioos:station:wmo:42864:2,2020-06-02T12:43:00Z,21.2465,-93.4117,11.0,28.2,11111222
Shell,ioos:station:wmo:42864:2,2020-06-02T12:53:00Z,21.2465,-93.4117,11.0,28.2,11111222
Shell,ioos:station:wmo:42864:2,2020-06-02T13:03:00Z,21.2465,-93.4117,11.0,28.2,11111222
Shell,ioos:station:wmo:42864:2,2020-06-02T13:13:00Z,21.2465,-93.4117,11.0,28.2,11111222
Shell,ioos:station:wmo:42864:2,2020-06-02T13:23:00Z,21.2465,-93.4117,11.0,28.2,11111222
Shell,ioos:station:wmo:42864:2,2020-06-02T13:33:00Z,21.2465,-93.4117,11.0,28.2,11111222
Shell,ioos:station:wmo:42864:2,2020-06-02T13:43:00Z,21.2465,-93.4117,11.0,28.2,11111222
Shell,ioos:station:wmo:42864:2,2020-06-02T13:53:00Z,21.2465,-93.4117,11.0,28.2,11111222
Shell,ioos:station:wmo:42864:2,2020-06-02T14:03:00Z,21.2465,-93.4117,11.0,28.2,11111222
Shell,ioos:station:wmo:42864:2,2020-06-02T14:13:00Z,21.2465,-93.4117,11.0,28.2,11111222
Shell,ioos:station:wmo:42864:2,2020-06-02T14:23:00Z,21.2465,-93.4117,11.0,28.2,11111222
Shell,ioos:station:wmo:42864:2,2020-06-02T14:33:00Z,21.2465,-93.4117,11.0,28.2,11111222
Shell,ioos:station:wmo:42864:2,2020-06-02T14:43:00Z,21.2465,-93.4117,11.0,28.2,11111222
Shell,ioos:station:wmo:42864:2,2020-06-02T14:53:00Z,21.2465,-93.4117,11.0,28.2,11111222
Shell,ioos:station:wmo:42864:2,2020-06-02T15:03:00Z,21.2465,-93.4117,11.0,28.2,11111222
Shell,ioos:station:wmo:42864:2,2020-06-02T15:13:00Z,21.2465,-93.4117,11.0,28.2,11111222
Shell,ioos:station:wmo:42864:2,2020-06-02T15:23:00Z,21.2465,-93.4117,11.0,28.2,11111222
Shell,ioos:station:wmo:42864:2,2020-06-02T15:33:00Z,21.2465,-93.4117,11.0,28.2,11111222
Shell,ioos:station:wmo:42864:2,2020-06-02T15:43:00Z,21.2465,-93.4117,11.0,28.2,11111222
Shell,ioos:station:wmo:42864:2,2020-06-02T15:53:00Z,21.2465,-93.4117,11.0,28.2,11111222
Shell,ioos:station:wmo:42864:2,2020-06-02T16:03:00Z,21.2465,-93.4117,11.0,28.2,11111222
Shell,ioos:station:wmo:42864:2,2020-06-02T16:13:00Z,21.2465,-93.4117,11.0,28.2,11111222
Shell,ioos:station:wmo:42864:2,2020-06-02T16:23:00Z,21.2465,-93.4117,11.0,28.2,11111222
Shell,ioos:station:wmo:42864:2,2020-06-02T16:33:00Z,21.2465,-93.4117,11.0,28.2,11111222
Shell,ioos:station:wmo:42864:2,2020-06-02T16:43:00Z,21.2465,-93.4117,11.0,28.2,11111222
Shell,ioos:station:wmo:42864:2,2020-06-02T16:53:00Z,21.2465,-93.4117,11.0,28.2,11111222
Shell,ioos:station:wmo:42864:2,2020-06-02T17:03:00Z,21.2465,-93.4117,11.0,28.2,11111222
Shell,ioos:station:wmo:42864:2,2020-06-02T17:13:00Z,21.2465,-93.4117,11.0,28.2,11111222
Shell,ioos:station:wmo:42864:2,2020-06-02T17:23:00Z,21.2465,-93.4117,11.0,28.2,11111222
Shell,ioos:station:wmo:42864:2,2020-06-02T17:33:00Z,21.2465,-93.4117,11.0,28.2,11111222
Shell,ioos:station:wmo:42864:2,2020-06-02T17:43:00Z,21.2465,-93.4117,11.0,28.2,11111222
Shell,ioos:station:wmo:42864:2,2020-06-02T17:53:00Z,21.2465,-93.4117,11.0,28.2,11111222
Shell,ioos:station:wmo:42864:2,2020-06-02T18:03:00Z,21.2465,-93.4117,11.0,28.2,11111222
Shell,ioos:station:wmo:42864:2,2020-06-14T03:34:00Z,21.2465,-93.4117,11.0,28.0,11111222
Shell,ioos:station:wmo:42864:2,2020-06-14T03:44:00Z,21.2465,-93.4117,11.0,28.1,11111222
Shell,ioos:station:wmo:42864:2,2020-06-14T03:54:00Z,21.2465,-93.4117,11.0,28.1,11111222
Shell,ioos:station:wmo:42864:2,2020-06-14T04:04:00Z,21.2465,-93.4117,11.0,28.1,11111222
Shell,ioos:station:wmo:42864:2,2020-06-14T04:14:00Z,21.2465,-93.4117,11.0,28.1,11111222
Shell,ioos:station:wmo:42864:2,2020-06-14T04:24:00Z,21.2465,-93.4117,11.0,28.1,11111222
Shell,ioos:station:wmo:42864:2,2020-06-14T04:34:00Z,21.2465,-93.4117,11.0,28.1,11111222
Shell,ioos:station:wmo:42864:2,2020-06-14T04:44:00Z,21.2465,-93.4117,11.0,28.1,11111222
Shell,ioos:station:wmo:42864:2,2020-06-14T04:54:00Z,21.2465,-93.4117,11.0,28.1,11111222
Shell,ioos:station:wmo:42864:2,2020-06-14T05:04:00Z,21.2465,-93.4117,11.0,28.1,11111222
Shell,ioos:station:wmo:42864:2,2020-06-14T05:14:00Z,21.2465,-93.4117,11.0,28.1,11111222
Shell,ioos:station:wmo:42864:2,2020-06-14T05:24:00Z,21.2465,-93.4117,11.0,28.1,11111222
Shell,ioos:station:wmo:42864:2,2020-06-14T05:34:00Z,21.2465,-93.4117,11.0,28.1,11111222
Shell,ioos:station:wmo:42864:2,2020-06-14T05:44:00Z,21.2465,-93.4117,11.0,28.1,11111222
Shell,ioos:station:wmo:42864:2,2020-06-14T05:54:00Z,21.2465,-93.4117,11.0,28.1,11111222